Location: McFarlands Corners
(41.4117°N, 81.3382°W)
Time: 03:33:40
(UTC+00:00)

Transit 4A - Pass Details

Date: 18 February 2026
Orbit: 864 x 977 km, 66.8° (Epoch: 7 March)

Event Time Altitude Azimuth Distance (km) Brightness Sun altitude
Rises 10:51:06 0° 260° (W) 3,470 - -16.6°
Reaches altitude 10° 10:54:27 10° 280° (W) 2,552 - -16.0°
Exits shadow 10:57:06 17° 306° (NW) 2,126 9.3 -15.5°
Maximum altitude 10:58:20 18° 321° (NW) 2,079 9.4 -15.2°
Drops below altitude 10° 11:02:18 10° 3° (N) 2,608 10.2 -14.5°
Sets 11:05:47 0° 22° (NNE) 3,578 11.2 -13.8°
